GSAT0210 (PRN E01)

Last updated on June 17, 2019, 3:37 a.m. UTC

1 41550U 16030B   19166.99560702 -.00000066  00000-0  00000+0 0  9998
2 41550  56.5866 292.0200 0002169 227.0067 132.9541  1.70475328 19035
UTC
Height (km)
Latitude
Longitude
Inclination
Orbital Period
UTC large
Height (km)
Speed (km/s)
/
Latitude / Longitude
Inclination (degrees)
Orbital Period (minutes)
Azimuth
Elevation
Range (km)
Doppler Factor
iOS Compass Heading
iOS Angle

Next 30 passes for location: Hong Kong

Rise time Rise Azimuth (degrees) Set time Set Azimuth (degrees) Duration Max altitude (degrees)

No matching passes for this satellites